Карточка аэропорта UHBB

Внимание!
Информация на этой странице в стадии наполнения.
Если вы не увидели какой-то информации, или заметили неточность - пожалуйста сообщите нам!
Спасибо!
Команда RU-STAFF
Название аэропортаИгнатьево
Название аэропорта (англ.)Ignatyevo
Превышение640 ft. (195.1 m.)
Координаты50°25.536', 127°24.72'
Высота перехода4000ft
Эшелон переходаQNH>=1013hPa: FL50; 1013hPa>QNH>=977hPa: FL60; QNH<977hPa: FL70
Коды ответчика1601-1617
Зона ОрВДХабаровск РПИ (UHHH)
Данные METARUHBB 190130Z 15004MPS 9999 SCT010 SCT026CB 21/19 Q0991 R18/090056 NOSIG RMK QBB300 QFE729/0972
Проноз погоды (TAF)UHBB 182235Z 1900/1924 19003G08MPS 9999 SCT030CB TEMPO 1900/1915 3100 -TSRA SCT011 BKN020CB BECMG 1908/1912 24003MPS
NOTAMshow/hide NOTAM
AWOS   TABLE

Информация о ВПП

ВПП Длина ВПП (м.) Покрытие Курс ВПП Частота ILS
182800Асфальтобетон180 
362800Асфальтобетон360108.7

Диспетчерские позиции

Позывной Наименование органа УВД Частота
UHBB_TWRБлаговещенск-Вышка127.2



Спутниковое изображение